Air Force Academy, CO

5:25 AM MST on November 17, 2019 (GMT -0700)
Usaf Academy

Weather History for KAFF - May, 2019

Change the Weather History Date:

Monday, May 6, 2019

  Actual Average Record
Temperature  
Mean Temperature 56 °F -  
Max Temperature 72 °F 61 °F 82 °F (2000)
Min Temperature 40 °F 35 °F 21 °F (1999)
Degree Days  
Heating Degree Days 10    
Growing Degree Days 6 (Base 50)    
Moisture  
Dew Point 33 °F    
Average Humidity 44    
Maximum Humidity 68    
Minimum Humidity 20    
Precipitation  
Precipitation 0.00 in - - ()
Sea Level Pressure  
Sea Level Pressure 29.83 in    
Wind  
Wind Speed 10 mph (NE)    
Max Wind Speed 23 mph    
Max Gust Speed 34 mph    
Visibility 10 miles    
Events      
Averages and records for this station are not official NWS values.
T = Trace of Precipitation, MM = Missing Value Source: NWS Daily Summary

Daily Weather History Graph

Daily Weather History Graph

Search for Another Location

Airport or City:

Astronomy

May. 06, 2019 Rise Set
Actual Time 5:55 AM MDT 7:56 PM MDT
Civil Twilight 5:26 AM MDT 8:25 PM MDT
Nautical Twilight 4:50 AM MDT 9:01 PM MDT
Astronomical Twilight 4:12 AM MDT 9:40 PM MDT
Moon 7:19 AM MDT (5/6) 9:56 PM MDT (5/6)
Length of Visible Light 14h 59m
Length of Day
14h 00m
Waxing Crescent, 4% of the Moon is Illuminated
May 6
Waxing Crescent
May 11
First Quarter
May 18
Full
May 26
Last Quarter
Jun 3
New

Hourly Weather History & Observations

Time (MDT) Temp. Windchill Dew Point Humidity Pressure Visibility Wind Dir Wind Speed Gust Speed Precip Events Conditions
12:58 AM 54.0 °F - 22.5 °F 29% 29.71 in 10.0 mi North 5.8 mph - N/A   Clear
1:58 AM 48.7 °F - 28.4 °F 45% 29.77 in 10.0 mi North 12.7 mph - N/A   Clear
2:58 AM 45.0 °F 40.1 °F 29.8 °F 55% 29.79 in 10.0 mi North 9.2 mph - N/A   Clear
3:58 AM 40.3 °F 33.9 °F 30.6 °F 68% 29.80 in 10.0 mi North 10.4 mph - N/A   Clear
4:58 AM 41.7 °F 37.3 °F 30.4 °F 64% 29.81 in 10.0 mi North 6.9 mph - N/A   Clear
5:58 AM 43.3 °F 38.1 °F 30.4 °F 60% 29.81 in 10.0 mi NNW 9.2 mph - N/A   Clear
6:58 AM 46.4 °F 43.5 °F 30.2 °F 53% 29.83 in 10.0 mi NNW 5.8 mph - N/A   Partly Cloudy
7:58 AM 55.4 °F - 35.6 °F 47% 29.81 in 10.0 mi SSW 3.5 mph - N/A   Partly Cloudy
8:58 AM 59.0 °F - 30.2 °F 34% 29.81 in 10.0 mi SSW 4.6 mph - N/A   Scattered Clouds
9:58 AM 59.0 °F - 30.2 °F 34% 29.83 in 10.0 mi SE 4.6 mph - N/A   Scattered Clouds
10:58 AM 65.7 °F - 26.8 °F 23% 29.79 in 10.0 mi SSE 13.8 mph - N/A   Scattered Clouds
11:58 AM 69.3 °F - 28.8 °F 22% 29.77 in 10.0 mi South 15.0 mph - N/A   Partly Cloudy
12:58 PM 70.9 °F - 30.2 °F 22% 29.72 in 10.0 mi SE 18.4 mph 26.5 mph N/A   Partly Cloudy
1:58 PM 71.4 °F - 28.2 °F 20% 29.73 in 10.0 mi SSE 17.3 mph 26.5 mph N/A   Partly Cloudy
2:58 PM 71.6 °F - 29.7 °F 21% 29.72 in 10.0 mi SE 23.0 mph 34.5 mph N/A   Partly Cloudy
3:58 PM 68.4 °F - 28.0 °F 22% 29.76 in 10.0 mi SSE 20.7 mph 27.6 mph N/A   Partly Cloudy
4:58 PM 69.1 °F - 32.7 °F 26% 29.77 in 10.0 mi SE 13.8 mph 23.0 mph N/A   Partly Cloudy
5:58 PM 65.1 °F - 36.0 °F 34% 29.78 in 10.0 mi South 17.3 mph - N/A   Partly Cloudy
6:58 PM 64.0 °F - 37.2 °F 37% 29.95 in 10.0 mi South 15.0 mph - N/A   Clear
7:13 PM 62.6 °F - 35.6 °F 37% 29.96 in 10.0 mi SE 15.0 mph 27.6 mph N/A   Clear
7:58 PM 55.9 °F - 39.6 °F 54% 29.98 in 10.0 mi NW 6.9 mph - N/A   Clear
8:58 PM 51.3 °F - 38.3 °F 61% 30.01 in 10.0 mi North 11.5 mph - N/A   Clear
9:58 PM 49.8 °F - 38.5 °F 65% 29.88 in 10.0 mi NNW 9.2 mph - N/A   Partly Cloudy
10:13 PM 51.8 °F - 37.4 °F 58% 30.06 in 10.0 mi NW 4.6 mph - N/A   Mostly Cloudy
10:58 PM 52.3 °F - 36.1 °F 54% 29.88 in 10.0 mi Calm Calm - N/A   Overcast
11:28 PM 51.8 °F - 37.4 °F 58% 29.88 in 10.0 mi North 5.8 mph - N/A   Mostly Cloudy
11:43 PM 48.2 °F - 37.4 °F 66% 29.86 in 10.0 mi NNW 4.6 mph - N/A   Partly Cloudy
11:58 PM 48.6 °F - 36.5 °F 63% 29.88 in 10.0 mi NNE 3.5 mph - N/A   Mostly Cloudy